Houston / Dunn Helistop, TX
on Sunday, August 13, 2017

Sunday
       
Previous Day Next Day
Daily Summary
 ActualAverage (KHOU)Record (KHOU)
Temperature
Mean Temperature °F °C °F °C  
Max Temperature 98°F 37°C 91°F 32°C 104°F 40°C (1962)
Min Temperature 80°F 27°C 73°F 22°C 64°F 17°C (2004)
Cooling Degree Days 24    
Growing Degree Days39 (Base °F °C )  
Moisture
Dew Point 74°F 23°C   
Average Humidity 68    
Maximum Humidity 84    
Minimum Humidity 37    
Precipitation
Precipitation 0.00 in / 0.00 cm in / cm in / cm ()
Wind
Wind Speed 7 mph / 11 km/h   
Max Wind Speed 13 mph / 21 km/h   
Max Gust Speed 20 mph / 32 km/h   
Visibility 10 miles / 16 kilometers   
Events     
Averages and records for this station are not official NWS values.
Key: T is trace of precipitation, MM is missing value
Source: NWS Daily Summary
Seasonal Weather Averages
Time(CDT)TemperatureDew PointHumidity Pressure Visibility Wind DirectionWind SpeedGust SpeedPrecipitationEvents Conditions
12:15 AM 82.4°F 28.0°C 75.2°F 24.0°C 79% 29.92 in / 1013.1 hPa 10.0 miles / 16.1 kilometers SSW 5.8 mph / 9.3 km/h - N/A   Clear
12:35 AM 82.4°F 28.0°C 75.2°F 24.0°C 79% 29.91 in / 1012.8 hPa 10.0 miles / 16.1 kilometers SSW 9.2 mph / 14.8 km/h - N/A   Clear
12:55 AM 80.6°F 27.0°C 75.2°F 24.0°C 84% 29.91 in / 1012.8 hPa 10.0 miles / 16.1 kilometers SW 6.9 mph / 11.1 km/h - N/A   Clear
1:15 AM 80.6°F 27.0°C 75.2°F 24.0°C 84% 29.90 in / 1012.4 hPa 10.0 miles / 16.1 kilometers South 10.4 mph / 16.7 km/h - N/A   Clear
1:35 AM 80.6°F 27.0°C 75.2°F 24.0°C 84% 29.91 in / 1012.8 hPa 10.0 miles / 16.1 kilometers SSW 6.9 mph / 11.1 km/h - N/A   Clear
1:55 AM 80.6°F 27.0°C 75.2°F 24.0°C 84% 29.91 in / 1012.8 hPa 10.0 miles / 16.1 kilometers SSW 5.8 mph / 9.3 km/h - N/A   Clear
2:15 AM 80.6°F 27.0°C 75.2°F 24.0°C 84% 29.90 in / 1012.4 hPa 10.0 miles / 16.1 kilometers SSW 6.9 mph / 11.1 km/h - N/A   Clear
2:35 AM 80.6°F 27.0°C 75.2°F 24.0°C 84% 29.90 in / 1012.4 hPa 10.0 miles / 16.1 kilometers SW 6.9 mph / 11.1 km/h - N/A   Clear
2:55 AM 80.6°F 27.0°C 75.2°F 24.0°C 84% 29.89 in / 1012.1 hPa 10.0 miles / 16.1 kilometers SSW 9.2 mph / 14.8 km/h - N/A   Clear
3:15 AM 80.6°F 27.0°C 75.2°F 24.0°C 84% 29.89 in / 1012.1 hPa 10.0 miles / 16.1 kilometers SSW 8.1 mph / 13.0 km/h - N/A   Clear
3:35 AM 80.6°F 27.0°C 75.2°F 24.0°C 84% 29.88 in / 1011.7 hPa 10.0 miles / 16.1 kilometers SSW 5.8 mph / 9.3 km/h - N/A   Clear
3:55 AM 80.6°F 27.0°C 75.2°F 24.0°C 84% 29.87 in / 1011.4 hPa 10.0 miles / 16.1 kilometers SW 8.1 mph / 13.0 km/h - N/A   Clear
4:15 AM 80.6°F 27.0°C 75.2°F 24.0°C 84% 29.88 in / 1011.7 hPa 10.0 miles / 16.1 kilometers SSW 8.1 mph / 13.0 km/h - N/A   Clear
4:35 AM 80.6°F 27.0°C 75.2°F 24.0°C 84% 29.88 in / 1011.7 hPa 10.0 miles / 16.1 kilometers SSW 9.2 mph / 14.8 km/h - N/A   Clear
4:55 AM 80.6°F 27.0°C 75.2°F 24.0°C 84% 29.89 in / 1012.1 hPa 10.0 miles / 16.1 kilometers SSW 6.9 mph / 11.1 km/h - N/A   Clear
5:15 AM 80.6°F 27.0°C 75.2°F 24.0°C 84% 29.89 in / 1012.1 hPa 10.0 miles / 16.1 kilometers SSW 6.9 mph / 11.1 km/h - N/A   Clear
5:35 AM 80.6°F 27.0°C 75.2°F 24.0°C 84% 29.88 in / 1011.7 hPa 10.0 miles / 16.1 kilometers SSW 6.9 mph / 11.1 km/h - N/A   Clear
5:55 AM 80.6°F 27.0°C 75.2°F 24.0°C 84% 29.88 in / 1011.7 hPa 10.0 miles / 16.1 kilometers SSW 5.8 mph / 9.3 km/h - N/A   Clear
6:15 AM 80.6°F 27.0°C 75.2°F 24.0°C 84% 29.89 in / 1012.1 hPa 10.0 miles / 16.1 kilometers SSW 5.8 mph / 9.3 km/h - N/A   Clear
6:35 AM 80.6°F 27.0°C 75.2°F 24.0°C 84% 29.89 in / 1012.1 hPa 10.0 miles / 16.1 kilometers SSW 5.8 mph / 9.3 km/h - N/A   Clear
6:55 AM 80.6°F 27.0°C 75.2°F 24.0°C 84% 29.89 in / 1012.1 hPa 10.0 miles / 16.1 kilometers SSW 8.1 mph / 13.0 km/h - N/A   Clear
7:15 AM 80.6°F 27.0°C 75.2°F 24.0°C 84% 29.90 in / 1012.4 hPa 10.0 miles / 16.1 kilometers SSW 5.8 mph / 9.3 km/h - N/A   Clear
7:35 AM 80.6°F 27.0°C 75.2°F 24.0°C 84% 29.91 in / 1012.8 hPa 10.0 miles / 16.1 kilometers SSW 6.9 mph / 11.1 km/h - N/A   Clear
7:55 AM 80.6°F 27.0°C 75.2°F 24.0°C 84% 29.91 in / 1012.8 hPa 10.0 miles / 16.1 kilometers SSW 8.1 mph / 13.0 km/h - N/A   Clear
8:15 AM 82.4°F 28.0°C 75.2°F 24.0°C 79% 29.92 in / 1013.1 hPa 10.0 miles / 16.1 kilometers SSW 5.8 mph / 9.3 km/h - N/A   Clear
8:35 AM 82.4°F 28.0°C 75.2°F 24.0°C 79% 29.92 in / 1013.1 hPa 10.0 miles / 16.1 kilometers SW 6.9 mph / 11.1 km/h - N/A   Clear
8:55 AM 84.2°F 29.0°C 75.2°F 24.0°C 74% 29.92 in / 1013.1 hPa 10.0 miles / 16.1 kilometers SW 8.1 mph / 13.0 km/h - N/A   Clear
9:15 AM 84.2°F 29.0°C 75.2°F 24.0°C 74% 29.93 in / 1013.4 hPa 10.0 miles / 16.1 kilometers SSW 5.8 mph / 9.3 km/h - N/A   Clear
9:35 AM 86.0°F 30.0°C 75.2°F 24.0°C 70% 29.93 in / 1013.4 hPa 10.0 miles / 16.1 kilometers SW 6.9 mph / 11.1 km/h - N/A   Partly Cloudy
9:55 AM 86.0°F 30.0°C 75.2°F 24.0°C 70% 29.92 in / 1013.1 hPa 10.0 miles / 16.1 kilometers SW 5.8 mph / 9.3 km/h - N/A   Partly Cloudy
10:15 AM 89.6°F 32.0°C 75.2°F 24.0°C 62% 29.93 in / 1013.4 hPa 10.0 miles / 16.1 kilometers South 3.5 mph / 5.6 km/h - N/A   Mostly Cloudy
10:35 AM 91.4°F 33.0°C 73.4°F 23.0°C 55% 29.93 in / 1013.4 hPa 10.0 miles / 16.1 kilometers SSW 8.1 mph / 13.0 km/h - N/A   Mostly Cloudy
10:55 AM 89.6°F 32.0°C 73.4°F 23.0°C 59% 29.93 in / 1013.4 hPa 10.0 miles / 16.1 kilometers SW 12.7 mph / 20.4 km/h 18.4 mph / 29.6 km/h N/A   Mostly Cloudy
11:15 AM 91.4°F 33.0°C 73.4°F 23.0°C 55% 29.93 in / 1013.4 hPa 10.0 miles / 16.1 kilometers SSW 4.6 mph / 7.4 km/h - N/A   Scattered Clouds
11:35 AM 91.4°F 33.0°C 73.4°F 23.0°C 55% 29.93 in / 1013.4 hPa 10.0 miles / 16.1 kilometers SW 5.8 mph / 9.3 km/h - N/A   Partly Cloudy
11:55 AM 93.2°F 34.0°C 73.4°F 23.0°C 52% 29.92 in / 1013.1 hPa 10.0 miles / 16.1 kilometers South 4.6 mph / 7.4 km/h 16.1 mph / 25.9 km/h N/A   Partly Cloudy
12:15 PM 93.2°F 34.0°C 73.4°F 23.0°C 52% 29.92 in / 1013.1 hPa 10.0 miles / 16.1 kilometers South 4.6 mph / 7.4 km/h - N/A   Mostly Cloudy
12:55 PM 95.0°F 35.0°C 73.4°F 23.0°C 49% 29.91 in / 1012.8 hPa 10.0 miles / 16.1 kilometers Calm Calm - N/A   Mostly Cloudy
1:15 PM 95.0°F 35.0°C 73.4°F 23.0°C 49% 29.90 in / 1012.4 hPa 10.0 miles / 16.1 kilometers SSW 5.8 mph / 9.3 km/h - N/A   Mostly Cloudy
1:35 PM 96.8°F 36.0°C 73.4°F 23.0°C 47% 29.89 in / 1012.1 hPa 10.0 miles / 16.1 kilometers SW 9.2 mph / 14.8 km/h - N/A   Scattered Clouds
1:55 PM 96.8°F 36.0°C 71.6°F 22.0°C 44% 29.89 in / 1012.1 hPa 10.0 miles / 16.1 kilometers SSW 6.9 mph / 11.1 km/h - N/A   Partly Cloudy
2:15 PM 98.6°F 37.0°C 71.6°F 22.0°C 42% 29.89 in / 1012.1 hPa 10.0 miles / 16.1 kilometers Calm Calm - N/A   Scattered Clouds
2:35 PM 98.6°F 37.0°C 71.6°F 22.0°C 42% 29.88 in / 1011.7 hPa 10.0 miles / 16.1 kilometers SSW 5.8 mph / 9.3 km/h - N/A   Partly Cloudy
2:55 PM 98.6°F 37.0°C 68.0°F 20.0°C 37% 29.87 in / 1011.4 hPa 10.0 miles / 16.1 kilometers SW 4.6 mph / 7.4 km/h - N/A   Partly Cloudy
3:15 PM 98.6°F 37.0°C 69.8°F 21.0°C 39% 29.86 in / 1011.1 hPa 10.0 miles / 16.1 kilometers South 5.8 mph / 9.3 km/h - N/A   Partly Cloudy
3:35 PM 95.0°F 35.0°C 71.6°F 22.0°C 47% 29.86 in / 1011.1 hPa 10.0 miles / 16.1 kilometers SW 5.8 mph / 9.3 km/h 16.1 mph / 25.9 km/h N/A   Partly Cloudy
3:55 PM 95.0°F 35.0°C 71.6°F 22.0°C 47% 29.85 in / 1010.7 hPa 10.0 miles / 16.1 kilometers South 5.8 mph / 9.3 km/h - N/A   Scattered Clouds
4:15 PM 98.6°F 37.0°C 71.6°F 22.0°C 42% 29.84 in / 1010.4 hPa 10.0 miles / 16.1 kilometers South 10.4 mph / 16.7 km/h 16.1 mph / 25.9 km/h N/A   Scattered Clouds
4:55 PM 95.0°F 35.0°C 71.6°F 22.0°C 47% 29.84 in / 1010.4 hPa 10.0 miles / 16.1 kilometers South 8.1 mph / 13.0 km/h - N/A   Partly Cloudy
5:15 PM 95.0°F 35.0°C 71.6°F 22.0°C 47% 29.84 in / 1010.4 hPa 10.0 miles / 16.1 kilometers SW 5.8 mph / 9.3 km/h - N/A   Clear
5:35 PM 95.0°F 35.0°C 71.6°F 22.0°C 47% 29.83 in / 1010.0 hPa 10.0 miles / 16.1 kilometers South 9.2 mph / 14.8 km/h 17.3 mph / 27.8 km/h N/A   Partly Cloudy
5:55 PM 93.2°F 34.0°C 71.6°F 22.0°C 49% 29.83 in / 1010.0 hPa 10.0 miles / 16.1 kilometers South 5.8 mph / 9.3 km/h - N/A   Partly Cloudy
6:15 PM 93.2°F 34.0°C 71.6°F 22.0°C 49% 29.83 in / 1010.0 hPa 10.0 miles / 16.1 kilometers South 9.2 mph / 14.8 km/h - N/A   Partly Cloudy
6:35 PM 93.2°F 34.0°C 71.6°F 22.0°C 49% 29.83 in / 1010.0 hPa 10.0 miles / 16.1 kilometers SW 3.5 mph / 5.6 km/h 16.1 mph / 25.9 km/h N/A   Clear
6:55 PM 91.4°F 33.0°C 71.6°F 22.0°C 52% 29.83 in / 1010.0 hPa 10.0 miles / 16.1 kilometers South 4.6 mph / 7.4 km/h - N/A   Clear
7:15 PM 91.4°F 33.0°C 73.4°F 23.0°C 55% 29.83 in / 1010.0 hPa 10.0 miles / 16.1 kilometers SSW 5.8 mph / 9.3 km/h 17.3 mph / 27.8 km/h N/A   Clear
7:35 PM 89.6°F 32.0°C 73.4°F 23.0°C 59% 29.83 in / 1010.0 hPa 10.0 miles / 16.1 kilometers South 6.9 mph / 11.1 km/h - N/A   Clear
7:55 PM 89.6°F 32.0°C 73.4°F 23.0°C 59% 29.83 in / 1010.0 hPa 10.0 miles / 16.1 kilometers South 11.5 mph / 18.5 km/h 18.4 mph / 29.6 km/h N/A   Clear
8:15 PM 87.8°F 31.0°C 75.2°F 24.0°C 66% 29.84 in / 1010.4 hPa 10.0 miles / 16.1 kilometers South 12.7 mph / 20.4 km/h 19.6 mph / 31.5 km/h N/A   Clear
8:35 PM 86.0°F 30.0°C 75.2°F 24.0°C 70% 29.84 in / 1010.4 hPa 10.0 miles / 16.1 kilometers SSE 12.7 mph / 20.4 km/h - N/A   Clear
8:55 PM 86.0°F 30.0°C 75.2°F 24.0°C 70% 29.84 in / 1010.4 hPa 10.0 miles / 16.1 kilometers South 10.4 mph / 16.7 km/h 18.4 mph / 29.6 km/h N/A   Clear
9:15 PM 84.2°F 29.0°C 75.2°F 24.0°C 74% 29.85 in / 1010.7 hPa 10.0 miles / 16.1 kilometers South 8.1 mph / 13.0 km/h 17.3 mph / 27.8 km/h N/A   Clear
9:35 PM 84.2°F 29.0°C 75.2°F 24.0°C 74% 29.86 in / 1011.1 hPa 10.0 miles / 16.1 kilometers SSE 5.8 mph / 9.3 km/h - N/A   Clear
9:55 PM 84.2°F 29.0°C 75.2°F 24.0°C 74% 29.86 in / 1011.1 hPa 10.0 miles / 16.1 kilometers South 9.2 mph / 14.8 km/h - N/A   Clear
10:15 PM 84.2°F 29.0°C 75.2°F 24.0°C 74% 29.87 in / 1011.4 hPa 10.0 miles / 16.1 kilometers South 4.6 mph / 7.4 km/h - N/A   Clear
10:35 PM 82.4°F 28.0°C 75.2°F 24.0°C 79% 29.87 in / 1011.4 hPa 10.0 miles / 16.1 kilometers Calm Calm - N/A   Clear
10:55 PM 82.4°F 28.0°C 75.2°F 24.0°C 79% 29.87 in / 1011.4 hPa 10.0 miles / 16.1 kilometers SSW 4.6 mph / 7.4 km/h - N/A   Clear
11:15 PM 82.4°F 28.0°C 75.2°F 24.0°C 79% 29.87 in / 1011.4 hPa 10.0 miles / 16.1 kilometers SSW 5.8 mph / 9.3 km/h - N/A   Clear
11:35 PM 82.4°F 28.0°C 75.2°F 24.0°C 79% 29.86 in / 1011.1 hPa 10.0 miles / 16.1 kilometers SW 3.5 mph / 5.6 km/h - N/A   Clear
11:55 PM 82.4°F 28.0°C 75.2°F 24.0°C 79% 29.86 in / 1011.1 hPa 10.0 miles / 16.1 kilometers SSW 6.9 mph / 11.1 km/h - N/A   Clear

Astronomy

Sunrise: 06:48 AM (CDT) Moon Rise: No Moon Rise /
Sunset: 08:03 PM (CDT) Moon Set: 12:23 PM (CDT) 8 / 13
Moon Phase
Aug. 13 Aug. 15 Aug. 21 Aug. 29 Sep. 06
View the Full Star Chart!
Powered by Weather Underground, Inc.